Location: Wiesbaden
(50.0830°N, 8.2500°E)
Time: 07:41:30
(UTC+02:00)

ISS - Pass Details

Date: 20 May 2019
Orbit: 408 x 418 km, 51.6° (Epoch: 27 May)

Event Time Altitude Azimuth Distance (km) Brightness Sun altitude
Rises 22:41:03 0° 241° (WSW) 2,344 0.2 -11.2°
Reaches altitude 10° 22:43:09 10° 238° (WSW) 1,486 -0.9 -11.4°
Maximum altitude 22:46:26 62° 157° (SSE) 473 -3.8 -11.7°
Drops below altitude 10° 22:49:46 10° 76° (ENE) 1,497 -1.2 -12.1°
Sets 22:51:53 0° 73° (ENE) 2,364 -0.1 -12.3°
